Wind_Speed
2 3 13 6 4 4 6 2 4 2 4 5 5 3 7 17 15 14 20 23 21 16 14 14 15 18 19 19 19 19 20 21 22 23 22 24 28 26 25 24 26 25 25 25
1 7 6 8 7 5 6 6 2 2 2 3 4 9 8 14 14 20 18 22 26 21 18 18 18 21 21 20 20 20 20 21 22 23 24 24 24 24 24 24 26 27 31 31
4 7 11 7 4 5 3 4 3 2 2 2 3 6 11 11 16 25 27 21 18 24 20 17 20 22 20 19 18 18 19 20 21 22 24 26 28 30 29 27 26 27 27 29
1 8 11 8 5 4 3 2 2 2 2 3 5 5 7 9 14 9 26 28 25 20 20 19 20 20 19 19 18 19 20 22 23 24 24 24 24 24 25 26 27 28 29 28
3 9 11 8 5 6 5 1 6 4 1 2 2 2 5 3 7 17 19 27 27 19 21 21 19 17 16 15 16 17 19 21 22 24 23 25 26 26 26 25 25 23 25 27
3 4 3 3 3 2 2 5 6 4 3 2 6 5 5 7 8 6 12 24 30 26 23 21 19 17 14 15 15 15 15 14 13 12 11 12 14 17 20 23 24 25 26 27
3 2 1 2 5 4 3 6 2 1 1 5 3 5 13 5 5 6 9 18 26 29 29 25 20 16 14 13 12 11 11 11 11 10 10 10 10 11 12 13 15 15 16 17
3 4 4 0 2 5 3 6 4 5 4 4 4 8 6 6 12 17 18 19 24 30 28 24 19 16 14 12 10 10 11 12 13 13 14 14 14 14 14 15 16 16 16 15
4 1 2 1 1 2 4 3 4 5 3 3 4 8 8 7 8 7 13 20 28 30 28 24 19 15 13 10 10 11 11 12 12 13 14 15 16 16 16 16 16 17 18 18
5 4 2 4 1 1 1 4 2 2 1 4 5 6 8 5 8 5 9 22 29 31 27 22 19 15 12 10 9 9 9 10 10 11 12 12 13 13 14 14 15 15 16 16
5 3 3 4 6 7 4 4 2 1 4 5 2 6 7 6 8 8 10 19 29 30 27 22 17 14 11 10 9 8 8 9 10 10 10 10 10 10 11 12 12 13 14 15
4 3 4 5 1 4 6 7 7 4 5 2 2 6 2 5 6 12 14 23 29 27 24 20 16 14 11 10 9 8 9 10 10 10 10 10 10 10 11 11 12 12 13 14
5 1 3 1 3 4 7 9 8 2 1 6 5 5 1 5 2 13 19 26 28 25 22 19 17 15 12 11 10 9 9 10 10 10 10 10 10 10 10 10 10 10 10 11
14 4 5 6 3 4 5 10 17 12 4 3 6 5 3 1 5 8 20 26 26 24 22 20 17 15 13 12 11 10 10 10 11 10 10 10 10 11 11 11 10 9 7 5
5 5 4 5 6 5 5 7 16 21 18 8 5 8 7 6 9 16 25 25 24 23 22 21 19 17 16 15 13 12 11 11 10 10 10 10 10 11 11 10 9 7 6 4
1 2 3 3 4 6 5 7 10 17 15 14 17 9 7 8 8 15 23 24 25 25 24 22 20 18 18 17 15 13 12 12 11 11 11 10 10 10 9 7 5 5 4 4
6 5 3 4 3 2 6 15 14 7 9 11 9 18 2 5 9 20 24 25 26 25 24 23 22 20 18 18 16 15 14 13 13 12 12 11 10 8 6 5 5 5 6 6
6 6 3 2 2 2 7 3 7 16 16 13 12 5 9 12 17 21 26 28 25 24 22 21 20 19 18 18 18 16 15 14 14 13 13 12 9 7 7 7 7 8 7 7
4 5 3 3 3 7 6 2 5 6 6 15 17 15 15 8 6 10 21 27 22 17 17 16 16 16 17 17 17 16 15 15 15 15 13 11 9 8 9 9 9 9 10 8
3 2 4 3 2 5 4 3 4 3 5 4 14 11 9 10 5 4 14 19 16 16 16 14 13 14 15 16 16 16 15 14 14 14 13 11 10 10 11 11 11 11 9 8
3 2 7 5 3 7 7 6 6 2 5 7 5 15 15 5 7 13 12 16 15 14 14 12 11 10 11 14 15 15 15 14 12 12 12 12 12 12 13 14 12 10 8 6
6 7 4 3 4 8 5 4 5 4 3 6 8 8 18 16 8 7 9 14 16 17 14 11 10 10 11 13 14 15 15 13 12 12 13 13 14 16 15 13 11 10 7 5
3 6 5 7 6 4 5 7 4 8 4 3 2 2 9 14 12 8 9 9 14 14 12 11 11 10 11 13 14 15 14 14 13 14 15 16 17 16 14 13 11 9 6 5
3 5 4 3 5 9 17 11 12 6 5 2 2 3 6 2 4 5 7 12 14 15 13 12 13 12 12 13 14 14 15 16 14 16 17 18 18 16 15 13 11 9 8 7
5 9 6 4 5 4 8 11 14 10 7 5 3 3 4 5 6 7 8 8 11 13 14 15 14 13 12 12 14 14 14 14 17 18 19 19 18 16 15 13 12 11 10 9
8 6 5 5 11 9 10 10 11 13 11 7 6 4 2 2 3 5 8 11 12 12 14 17 16 16 14 14 14 14 14 16 18 20 21 19 18 17 16 15 13 12 12 11
Wind_Direction
160 141 187 154 145 138 123 109 136 207 160 166 208 165 237 244 223 243 243 232 221 222 212 212 209 212 213 217 215 218 220 224 230 234 236 237 245 251 255 256 258 261 262 261
165 186 161 146 133 134 145 174 230 280 154 160 167 230 220 233 243 243 247 238 227 219 223 224 219 210 210 214 216 217 220 225 229 234 239 241 244 246 249 252 254 257 259 261
168 148 143 139 149 112 90 161 187 151 24 97 113 262 242 245 246 254 256 254 250 226 215 208 202 204 211 219 225 228 228 231 236 240 242 244 247 248 248 250 254 256 256 257
67 153 141 147 172 117 111 213 210 243 113 217 162 266 251 245 243 235 244 246 244 227 210 203 199 205 214 223 232 240 247 249 251 252 250 249 250 251 253 253 256 260 264 265
254 158 144 160 174 151 184 165 170 192 198 135 250 300 266 245 248 241 236 235 235 231 213 202 200 203 211 225 239 249 255 258 261 263 260 254 253 256 259 260 259 258 260 264
28 53 54 136 82 95 117 88 43 54 75 294 190 186 238 204 219 244 234 231 229 217 201 195 196 205 217 232 241 243 247 249 252 257 261 260 257 257 259 264 266 266 266 265
68 35 33 117 89 28 97 91 145 184 211 232 197 208 245 244 242 221 251 247 221 200 190 189 193 203 215 220 223 226 233 242 249 256 264 268 266 263 263 266 269 271 272 270
138 165 173 147 142 162 137 159 165 197 196 225 121 240 249 225 251 251 252 256 203 187 183 185 194 201 209 213 224 235 245 252 259 264 269 273 274 273 272 271 270 271 271 271
132 57 121 91 80 102 176 164 144 95 36 43 236 291 288 246 260 236 203 195 184 181 179 182 189 200 210 225 242 253 258 260 262 267 270 271 273 274 274 273 272 271 271 270
198 102 199 122 97 37 154 156 115 33 188 243 258 276 248 272 254 242 176 173 177 178 176 181 190 199 214 233 251 259 263 266 268 270 270 269 270 271 273 273 273 272 270 269
147 109 142 113 211 183 150 174 167 133 182 203 245 250 211 238 254 213 187 171 173 176 181 185 190 201 218 237 252 261 268 270 269 267 266 268 271 274 275 277 277 275 273 271
194 126 175 196 214 207 228 192 197 176 216 237 174 264 274 267 257 185 177 176 180 185 186 191 200 209 222 236 247 259 266 266 265 265 265 270 275 278 282 285 284 283 283 281
167 195 136 121 345 244 221 210 204 169 23 209 171 255 290 16 171 181 175 184 185 188 194 197 204 216 226 231 239 254 259 257 258 261 267 270 273 279 285 288 286 287 292 289
167 174 187 197 198 135 208 208 209 207 192 194 224 277 324 323 209 201 189 188 191 197 202 208 213 222 229 234 242 252 256 253 254 257 261 265 270 276 280 279 275 276 285 279
154 208 186 247 231 188 209 209 207 221 228 219 235 220 249 234 211 211 195 191 200 204 210 217 222 224 228 233 242 249 252 253 254 256 260 265 273 280 285 281 270 253 253 240
111 212 108 292 256 233 259 242 214 217 228 245 252 278 235 274 204 194 199 199 201 209 219 225 230 233 237 241 245 250 254 254 254 256 260 266 274 281 281 272 245 210 197 172
149 137 110 257 345 343 304 241 220 214 211 211 210 239 191 226 206 214 203 205 210 219 226 230 236 241 243 246 247 250 252 253 252 256 261 264 269 272 254 223 194 177 164 152
148 132 126 199 47 283 237 203 212 224 238 217 247 216 208 226 241 236 222 218 218 230 233 236 238 240 239 239 239 241 246 251 252 255 259 260 260 242 222 199 176 169 161 144
169 138 146 166 204 290 287 192 176 178 266 217 224 231 221 208 242 254 229 220 236 237 239 240 247 244 240 239 238 239 243 248 252 257 253 249 240 215 200 183 170 163 154 141
152 162 146 145 194 244 246 308 180 166 294 295 220 227 182 157 204 237 213 207 215 224 228 228 232 237 234 232 234 238 242 244 252 256 244 235 215 200 187 173 166 163 153 150
156 188 196 200 227 276 244 246 152 109 251 327 252 220 188 182 199 210 201 211 218 219 212 217 230 238 234 232 235 236 239 248 258 251 232 214 197 187 173 170 168 167 164 160
160 178 177 156 210 262 191 112 170 223 302 325 334 237 204 206 194 226 221 218 212 207 206 217 230 233 232 232 234 235 241 247 254 237 215 198 189 178 174 178 178 175 176 179
183 186 181 180 208 220 211 223 251 278 275 327 344 127 188 207 226 230 220 220 212 210 218 235 235 238 241 240 238 239 242 245 252 218 200 193 183 179 185 186 188 191 199 213
256 168 179 112 244 243 261 254 250 251 238 295 6 160 159 194 225 212 221 220 225 228 231 237 238 241 244 240 235 238 240 243 224 205 198 191 185 189 191 196 202 211 222 235
190 151 175 262 286 272 263 241 244 236 239 244 227 177 174 190 208 225 228 240 248 250 249 244 246 248 245 241 236 242 245 224 208 203 196 191 194 199 204 210 216 224 233 242
186 174 166 215 212 207 247 258 237 227 230 221 209 201 208 246 254 250 252 250 248 256 260 249 244 243 242 244 240 243 230 218 207 202 198 199 207 209 213 218 224 231 238 248
Height
1488 1495 1497 1503 1503 1505 1511 1513 1512 1511 1510 1515 1517 1518 1516 1517 1518 1517 1514 1516 1517 1518 1518 1520 1522 1524 1526 1528 1529 1532 1534 1536 1537 1538 1539 1539 1540 1543 1544 1545 1546 1547 1548 1549
1495 1495 1498 1501 1503 1506 1510 1515 1515 1511 1510 1513 1516 1516 1514 1513 1510 1511 1511 1510 1511 1512 1513 1515 1518 1521 1523 1526 1527 1529 1531 1532 1534 1535 1536 1537 1538 1538 1539 1540 1541 1542 1543 1544
1496 1492 1496 1500 1504 1509 1513 1516 1518 1515 1512 1514 1515 1517 1512 1503 1505 1506 1505 1506 1507 1508 1509 1512 1515 1518 1520 1522 1524 1526 1527 1528 1529 1530 1531 1532 1533 1533 1534 1535 1536 1537 1538 1539
1490 1493 1496 1502 1505 1510 1515 1512 1511 1512 1518 1526 1515 1528 1510 1499 1499 1498 1497 1498 1501 1504 1506 1509 1511 1514 1517 1519 1521 1522 1523 1523 1525 1526 1526 1527 1528 1528 1529 1530 1531 1532 1533 1533
1501 1495 1499 1504 1505 1508 1515 1513 1515 1516 1519 1521 1519 1525 1505 1499 1500 1488 1488 1493 1497 1500 1503 1506 1509 1511 1514 1516 1518 1519 1519 1519 1519 1519 1520 1521 1522 1523 1524 1524 1525 1526 1527 1528
1499 1499 1502 1505 1507 1507 1509 1512 1516 1521 1525 1537 1519 1522 1505 1497 1490 1486 1483 1486 1490 1494 1499 1503 1506 1508 1511 1513 1514 1515 1515 1515 1515 1516 1516 1517 1517 1518 1518 1518 1519 1520 1520 1521
1502 1505 1505 1504 1508 1509 1510 1517 1523 1530 1528 1529 1519 1518 1487 1485 1483 1482 1480 1481 1484 1489 1493 1498 1502 1505 1507 1509 1511 1512 1513 1513 1513 1514 1514 1514 1515 1515 1515 1515 1515 1515 1515 1515
1502 1503 1506 1505 1506 1507 1511 1515 1525 1521 1527 1527 1525 1511 1488 1477 1476 1476 1475 1477 1482 1486 1490 1495 1499 1502 1505 1507 1509 1510 1510 1511 1511 1511 1511 1511 1512 1512 1512 1512 1512 1512 1512 1512
1504 1506 1505 1505 1506 1508 1514 1515 1518 1528 1536 1545 1516 1498 1481 1475 1473 1472 1473 1474 1479 1484 1487 1492 1496 1499 1502 1505 1507 1508 1508 1507 1507 1508 1508 1508 1508 1508 1508 1508 1507 1507 1507 1507
1496 1508 1504 1506 1508 1510 1509 1511 1519 1535 1532 1533 1515 1511 1487 1476 1473 1473 1471 1472 1477 1482 1486 1490 1494 1497 1500 1502 1504 1504 1505 1505 1504 1504 1505 1505 1505 1505 1505 1504 1503 1503 1503 1503
1494 1500 1507 1507 1505 1502 1509 1508 1513 1517 1523 1518 1510 1498 1480 1476 1471 1471 1471 1472 1475 1481 1485 1489 1492 1495 1497 1499 1500 1501 1502 1503 1502 1502 1502 1503 1502 1502 1502 1501 1500 1500 1499 1499
1490 1499 1503 1501 1500 1501 1502 1501 1506 1519 1510 1523 1525 1496 1470 1468 1467 1468 1472 1473 1477 1481 1484 1488 1491 1493 1494 1496 1497 1499 1499 1500 1500 1500 1500 1500 1499 1499 1499 1497 1497 1496 1496 1495
1487 1499 1500 1503 1506 1500 1498 1496 1499 1508 1515 1522 1512 1487 1468 1465 1467 1468 1470 1473 1476 1480 1485 1486 1488 1490 1492 1493 1495 1496 1497 1497 1497 1498 1498 1498 1497 1497 1496 1495 1494 1493 1492 1491
1484 1491 1490 1490 1487 1491 1494 1492 1493 1497 1508 1500 1496 1476 1465 1467 1469 1469 1469 1472 1475 1478 1481 1484 1484 1486 1489 1491 1492 1493 1493 1494 1495 1495 1495 1495 1495 1494 1493 1492 1491 1491 1490 1489
1480 1487 1490 1487 1487 1489 1488 1488 1489 1488 1483 1486 1473 1477 1468 1464 1465 1464 1466 1469 1474 1476 1479 1480 1482 1483 1486 1488 1489 1490 1490 1491 1492 1492 1493 1493 1491 1491 1490 1489 1488 1488 1488 1488
1479 1492 1494 1498 1483 1484 1485 1481 1481 1479 1478 1477 1474 1472 1460 1459 1461 1462 1463 1466 1469 1472 1474 1476 1479 1481 1482 1484 1486 1487 1488 1488 1489 1490 1490 1489 1488 1488 1487 1487 1487 1486 1487 1487
1479 1488 1498 1497 1485 1484 1489 1468 1468 1467 1466 1464 1474 1452 1458 1458 1457 1458 1459 1462 1465 1467 1470 1472 1474 1476 1479 1481 1483 1484 1485 1486 1486 1486 1486 1486 1486 1485 1484 1485 1485 1486 1486 1487
1479 1483 1493 1499 1491 1501 1463 1455 1457 1457 1453 1458 1454 1451 1452 1452 1453 1454 1456 1458 1461 1464 1467 1469 1472 1474 1476 1477 1479 1480 1481 1482 1483 1483 1483 1483 1482 1482 1483 1484 1484 1486 1487 1487
1468 1476 1487 1491 1493 1475 1452 1453 1455 1456 1449 1445 1446 1446 1447 1449 1451 1450 1450 1455 1459 1461 1464 1467 1469 1471 1472 1474 1476 1477 1478 1479 1480 1480 1480 1480 1479 1479 1482 1483 1484 1485 1487 1487
1467 1467 1473 1492 1488 1477 1456 1448 1448 1449 1455 1440 1440 1440 1443 1447 1453 1449 1448 1452 1456 1459 1462 1464 1465 1467 1468 1470 1472 1474 1475 1476 1476 1477 1477 1477 1477 1479 1480 1482 1484 1487 1487 1488
1467 1468 1468 1474 1472 1466 1450 1447 1447 1454 1452 1438 1437 1437 1440 1443 1445 1447 1448 1451 1454 1456 1458 1460 1462 1463 1465 1467 1469 1471 1472 1473 1472 1473 1474 1474 1476 1478 1479 1482 1485 1487 1487 1488
1460 1461 1464 1469 1470 1467 1444 1446 1450 1444 1439 1438 1436 1434 1437 1441 1444 1445 1447 1449 1451 1453 1455 1458 1459 1461 1462 1464 1466 1468 1469 1470 1470 1471 1472 1473 1475 1477 1480 1483 1485 1486 1486 1487
1453 1449 1456 1455 1452 1440 1440 1439 1440 1439 1439 1439 1438 1437 1438 1441 1443 1444 1446 1448 1451 1453 1454 1456 1457 1458 1459 1461 1463 1464 1466 1467 1468 1469 1470 1472 1474 1477 1480 1482 1483 1484 1485 1487
1441 1440 1444 1445 1436 1436 1436 1438 1438 1438 1439 1439 1439 1440 1441 1443 1444 1445 1446 1449 1451 1452 1452 1454 1455 1456 1457 1458 1460 1462 1463 1464 1465 1466 1469 1471 1473 1476 1478 1480 1482 1483 1484 1485
1434 1436 1439 1441 1435 1434 1433 1434 1435 1436 1437 1439 1440 1441 1442 1443 1444 1445 1446 1447 1449 1450 1450 1452 1453 1454 1456 1456 1458 1459 1459 1460 1462 1464 1467 1469 1472 1474 1476 1479 1480 1481 1482 1483
1426 1429 1435 1435 1427 1428 1428 1430 1431 1433 1435 1438 1439 1440 1441 1442 1443 1444 1444 1445 1446 1447 1448 1449 1451 1452 1453 1454 1455 1456 1457 1458 1460 1462 1464 1467 1470 1472 1474 1476 1477 1478 1479 1480